Simultaneous Nadir Overpasses (SNOs) Predictions

Prediction of SNOs between NPP and PACE Satellite Orbit:

Table of predicted SNOs for the next 14.0 days since TLE Epoch: 7/12/2025
Index Date (NPP) Time (NPP) Lat,Lon (NPP) SZA (NPP ) Date (PACE) Time (PACE) Lat,Lon (PACE) SZA (PACE ) Distance(km) Time Diff (sec)
1 07/13/2025 03:27:51 -79.97, -90.23 119.39 07/13/2025 03:28:50 -79.97, -90.26 119.42 0.60 59
2 07/13/2025 04:18:32 79.83, 78.46 60.36 07/13/2025 04:17:57 79.82, 78.58 60.35 2.68 35
3 07/15/2025 08:45:00 79.88, 11.36 60.79 07/15/2025 08:45:06 79.88, 11.32 60.79 0.78 6
4 07/17/2025 13:11:30 79.99, -56.35 61.37 07/17/2025 13:12:16 79.99, -56.28 61.33 1.56 46
5 07/17/2025 14:02:08 -79.81, 112.80 118.98 07/17/2025 14:01:21 -79.81, 112.76 118.95 0.89 47
6 07/19/2025 18:28:37 -79.89, 45.39 118.43 07/19/2025 18:28:30 -79.89, 45.41 118.43 0.40 7
7 07/21/2025 22:55:06 -79.97, -22.04 117.85 07/21/2025 22:55:39 -79.97, -22.00 117.88 0.86 33
8 07/21/2025 23:45:45 79.77, 147.20 61.79 07/21/2025 23:44:45 79.78, 147.13 61.83 1.49 60
9 07/24/2025 03:21:35 -80.05, -89.51 117.25 07/24/2025 03:22:48 -80.05, -89.48 117.29 0.61 73



Historial Predications of SNOs between NPP and PACE
